Weather History for PAPH - October, 2013

Change the Weather History Date:

Friday, October 25, 2013

  Actual Average Record
Temperature  
Mean Temperature 46 °F -  
Max Temperature 51 °F 38 °F 51 °F (2004)
Min Temperature 41 °F 27 °F 16 °F (1996)
Degree Days  
Heating Degree Days 19    
Moisture  
Dew Point 29 °F    
Average Humidity 54    
Maximum Humidity 66    
Minimum Humidity 28    
Precipitation  
Precipitation 0.00 in - - ()
Sea Level Pressure  
Sea Level Pressure 29.74 in    
Wind  
Wind Speed 18 mph (SSE)    
Max Wind Speed 26 mph    
Max Gust Speed 34 mph    
Visibility 10 miles    
Events      
Averages and records for this station are not official NWS values.
T = Trace of Precipitation, MM = Missing Value Source: NWS Daily Summary

Daily Weather History Graph

Daily Weather History Graph

Search for Another Location

Airport or City:

Trip Planner

Search our weather history database for the weather conditions in past years. The results will help you decide how hot, cold, wet, or windy it might be!

Date:

Astronomy

Oct. 25, 2013 Rise Set
Actual Time 9:30 AM AKDT 7:05 PM AKDT
Civil Twilight 8:50 AM AKDT 7:45 PM AKDT
Nautical Twilight 8:05 AM AKDT 8:29 PM AKDT
Astronomical Twilight 7:21 AM AKDT 9:13 PM AKDT
Moon No Moon Rise 3:36 PM AKDT (10/25)
Length of Visible Light 10h 54m
Length of Day
9h 35m
Waning Gibbous, 61% of the Moon is Illuminated
Oct 25
Waning Gibbous
Oct 26
Last Quarter
Nov 3
New
Nov 9
First Quarter
Nov 17
Full

Hourly Weather History & Observations

Time (AKDT) Temp. Windchill Dew Point Humidity Pressure Visibility Wind Dir Wind Speed Gust Speed Precip Events Conditions
12:16 AM 44.6 °F 35.5 °F 28.4 °F 53% 29.36 in 10.0 mi SSE 25.3 mph - N/A   Clear
12:36 AM 42.8 °F 33.3 °F 28.4 °F 57% 29.37 in 10.0 mi SSE 24.2 mph 32.2 mph N/A   Clear
12:56 AM 44.6 °F 35.3 °F 30.2 °F 57% 29.37 in 10.0 mi SSE 26.5 mph 34.5 mph N/A   Clear
1:16 AM 42.8 °F 34.0 °F 30.2 °F 61% 29.39 in 10.0 mi SSE 20.7 mph 33.4 mph N/A   Clear
1:36 AM 42.8 °F 33.8 °F 28.4 °F 57% 29.40 in 10.0 mi SSE 21.9 mph - N/A   Clear
1:56 AM 44.6 °F 36.1 °F 28.4 °F 53% 29.41 in 10.0 mi SSE 21.9 mph 33.4 mph N/A   Clear
2:16 AM 42.8 °F 34.5 °F 28.4 °F 57% 29.42 in 10.0 mi SSE 18.4 mph - N/A   Clear
2:36 AM 42.8 °F 33.8 °F 26.6 °F 53% 29.43 in 10.0 mi SSE 21.9 mph - N/A   Clear
2:56 AM 42.8 °F 33.8 °F 26.6 °F 53% 29.45 in 10.0 mi SSE 21.9 mph 25.3 mph N/A   Clear
3:16 AM 44.6 °F 35.7 °F 28.4 °F 53% 29.46 in 10.0 mi South 24.2 mph - N/A   Clear
3:36 AM 42.8 °F 34.8 °F 28.4 °F 57% 29.48 in 10.0 mi South 17.3 mph - N/A   Clear
3:56 AM 42.8 °F 35.8 °F 28.4 °F 57% 29.50 in 10.0 mi SSE 13.8 mph - N/A   Clear
4:16 AM 41.0 °F 33.5 °F 30.2 °F 65% 29.51 in 10.0 mi SE 13.8 mph - N/A   Partly Cloudy
4:36 AM 41.0 °F 33.5 °F 28.4 °F 61% 29.51 in 10.0 mi SSE 13.8 mph - N/A   Clear
4:56 AM 42.8 °F 34.8 °F 28.4 °F 57% 29.52 in 10.0 mi SSE 17.3 mph - N/A   Clear
5:16 AM 42.8 °F 34.8 °F 28.4 °F 57% 29.53 in 10.0 mi SSE 17.3 mph - N/A   Partly Cloudy
5:36 AM 42.8 °F 34.5 °F 28.4 °F 57% 29.54 in 10.0 mi SSE 18.4 mph - N/A   Clear
5:56 AM 44.6 °F 36.6 °F 30.2 °F 57% 29.55 in 10.0 mi SSE 19.6 mph - N/A   Clear
6:16 AM 44.6 °F 35.9 °F 30.2 °F 57% 29.55 in 10.0 mi South 23.0 mph 27.6 mph N/A   Clear
6:36 AM 44.6 °F 36.1 °F 28.4 °F 53% 29.56 in 10.0 mi SSE 21.9 mph - N/A   Clear
6:56 AM 42.8 °F 34.8 °F 30.2 °F 61% 29.58 in 10.0 mi SSE 17.3 mph - N/A   Scattered Clouds
7:16 AM 42.8 °F 34.8 °F 30.2 °F 61% 29.59 in 10.0 mi SSE 17.3 mph 21.9 mph N/A   Mostly Cloudy
7:36 AM 42.8 °F 35.1 °F 30.2 °F 61% 29.61 in 10.0 mi SSE 16.1 mph - N/A   Clear
7:56 AM 42.8 °F 34.3 °F 30.2 °F 61% 29.61 in 10.0 mi SSE 19.6 mph - N/A   Clear
8:16 AM 42.8 °F 34.8 °F 30.2 °F 61% 29.61 in 10.0 mi SSE 17.3 mph 24.2 mph N/A   Clear
8:36 AM 42.8 °F 35.4 °F 30.2 °F 61% 29.63 in 10.0 mi SSE 15.0 mph - N/A   Clear
8:56 AM 42.8 °F 36.2 °F 28.4 °F 57% 29.65 in 10.0 mi SSE 12.7 mph - N/A   Clear
9:16 AM 42.8 °F 35.4 °F 28.4 °F 57% 29.66 in 10.0 mi SSE 15.0 mph - N/A   Clear
9:36 AM 41.0 °F 32.5 °F 28.4 °F 61% 29.66 in 10.0 mi South 17.3 mph - N/A   Clear
9:56 AM 41.0 °F 33.5 °F 28.4 °F 61% 29.67 in 10.0 mi SSE 13.8 mph - N/A   Clear
10:16 AM 41.0 °F 33.5 °F 28.4 °F 61% 29.69 in 10.0 mi SSE 13.8 mph - N/A   Clear
10:36 AM 42.8 °F 36.6 °F 28.4 °F 57% 29.71 in 10.0 mi SSE 11.5 mph - N/A   Clear
10:56 AM 42.8 °F 36.2 °F 28.4 °F 57% 29.72 in 10.0 mi SSE 12.7 mph - N/A   Clear
11:16 AM 44.6 °F 38.4 °F 28.4 °F 53% 29.74 in 10.0 mi SSE 12.7 mph - N/A   Clear
11:36 AM 46.4 °F 39.8 °F 28.4 °F 50% 29.74 in 10.0 mi SSE 16.1 mph - N/A   Clear
11:56 AM 46.4 °F 39.5 °F 30.2 °F 53% 29.75 in 10.0 mi SSE 17.3 mph 23.0 mph N/A   Clear
12:16 PM 48.2 °F - 30.2 °F 50% 29.76 in 10.0 mi SSE 18.4 mph 23.0 mph N/A   Clear
12:36 PM 48.2 °F - 28.4 °F 46% 29.78 in 10.0 mi SSE 19.6 mph 25.3 mph N/A   Clear
12:56 PM 50.0 °F - 28.4 °F 43% 29.79 in 10.0 mi SSE 18.4 mph 23.0 mph N/A   Clear
1:16 PM 48.2 °F - 30.2 °F 50% 29.81 in 10.0 mi SSE 18.4 mph 24.2 mph N/A   Clear
1:36 PM 50.0 °F - 28.4 °F 43% 29.82 in 10.0 mi South 18.4 mph 24.2 mph N/A   Clear
1:56 PM 50.0 °F - 28.4 °F 43% 29.83 in 10.0 mi South 18.4 mph - N/A   Clear
2:16 PM 50.0 °F - 28.4 °F 43% 29.84 in 10.0 mi SSE 15.0 mph 20.7 mph N/A   Clear
2:36 PM 51.8 °F - 28.4 °F 41% 29.85 in 10.0 mi SSE 15.0 mph 19.6 mph N/A   Clear
2:56 PM 51.8 °F - 28.4 °F 41% 29.86 in 10.0 mi SSE 16.1 mph 20.7 mph N/A   Clear
3:16 PM 51.8 °F - 26.6 °F 38% 29.87 in 10.0 mi South 16.1 mph - N/A   Clear
3:36 PM 51.8 °F - 28.4 °F 41% 29.88 in 10.0 mi SSE 18.4 mph - N/A   Clear
3:56 PM 51.8 °F - 28.4 °F 41% 29.89 in 10.0 mi SSE 16.1 mph - N/A   Clear
4:16 PM 50.0 °F - 28.4 °F 43% 29.90 in 10.0 mi South 13.8 mph - N/A   Clear
4:36 PM 48.2 °F - 30.2 °F 50% 29.91 in 10.0 mi SSE 13.8 mph - N/A   Clear
4:56 PM 50.0 °F - 28.4 °F 43% 29.91 in 10.0 mi SSE 15.0 mph - N/A   Partly Cloudy
5:16 PM 50.0 °F - 28.4 °F 43% 29.92 in 10.0 mi SSE 13.8 mph - N/A   Clear
5:36 PM 50.0 °F - 30.2 °F 47% 29.93 in 10.0 mi SSE 15.0 mph - N/A   Clear
5:56 PM 48.2 °F - 30.2 °F 50% 29.94 in 10.0 mi SSE 9.2 mph - N/A   Clear
6:16 PM 46.4 °F 41.1 °F 30.2 °F 53% 29.95 in 10.0 mi SSE 11.5 mph - N/A   Clear
6:36 PM 44.6 °F 38.8 °F 32.0 °F 61% 29.95 in 10.0 mi SE 11.5 mph - N/A   Clear
6:56 PM 44.6 °F 38.8 °F 30.2 °F 57% 29.96 in 10.0 mi SSE 11.5 mph - N/A   Clear
7:16 PM 44.6 °F 38.8 °F 30.2 °F 57% 29.97 in 10.0 mi SSE 11.5 mph - N/A   Clear
7:36 PM 42.8 °F 36.2 °F 30.2 °F 61% 29.98 in 10.0 mi SSE 12.7 mph - N/A   Clear
7:56 PM 44.6 °F 38.4 °F 30.2 °F 57% 29.98 in 10.0 mi SSE 12.7 mph - N/A   Clear
8:16 PM 44.6 °F 38.4 °F 30.2 °F 57% 29.99 in 10.0 mi SSE 12.7 mph - N/A   Clear
8:36 PM 44.6 °F 38.4 °F 30.2 °F 57% 29.99 in 10.0 mi SSE 12.7 mph - N/A   Clear
8:56 PM 42.8 °F 36.2 °F 30.2 °F 61% 30.00 in 10.0 mi SE 12.7 mph - N/A   Clear
9:16 PM 42.8 °F 36.6 °F 30.2 °F 61% 30.01 in 10.0 mi SE 11.5 mph - N/A   Clear
9:36 PM 41.0 °F 34.7 °F 28.4 °F 61% 30.02 in 10.0 mi SE 10.4 mph - N/A   Clear
9:56 PM 41.0 °F 35.2 °F 28.4 °F 61% 30.02 in 10.0 mi SE 9.2 mph - N/A   Clear
10:16 PM 41.0 °F 35.8 °F 28.4 °F 61% 30.02 in 10.0 mi SE 8.1 mph - N/A   Clear
10:36 PM 41.0 °F 37.1 °F 28.4 °F 61% 30.03 in 10.0 mi ESE 5.8 mph - N/A   Clear
10:56 PM 42.8 °F 38.6 °F 28.4 °F 57% 30.04 in 10.0 mi SE 6.9 mph - N/A   Clear
11:16 PM 42.8 °F 34.0 °F 30.2 °F 61% 30.04 in 10.0 mi SE 20.7 mph 27.6 mph N/A   Clear
11:36 PM 42.8 °F 35.4 °F 32.0 °F 66% 30.05 in 10.0 mi SSE 15.0 mph - N/A   Clear
11:56 PM 42.8 °F 34.5 °F 32.0 °F 66% 30.06 in 10.0 mi SSE 18.4 mph - N/A   Clear